Temperature
17 17 17 17 18 18 18 18 18 18 18 18 18 18 18 18 18 18 18 18 18 18 18 18 18 18 18 18 18 18 18 18 18 18 18 18 18 18 18 18 18 17 18
17 17 17 17 17 17 17 17 18 18 18 18 18 18 17 17 17 17 18 18 18 18 18 18 18 18 18 18 18 18 18 18 18 18 18 18 18 18 18 18 18 18 18
17 17 17 17 17 17 17 17 17 17 17 17 17 17 17 17 17 17 17 17 17 17 17 17 17 17 18 17 18 18 18 18 18 18 18 17 17 18 18 18 18 18 18
16 16 17 17 17 17 17 17 17 17 17 17 17 17 17 17 17 17 17 17 17 17 17 17 17 17 17 17 17 17 18 18 18 18 17 17 17 18 18 18 18 18 18
16 16 17 17 17 17 17 17 17 17 17 17 17 17 17 16 16 16 16 16 17 17 17 17 17 17 17 17 17 17 18 18 18 17 17 17 17 18 18 18 18 18 18
16 16 16 17 17 17 17 17 17 16 16 16 16 16 16 16 16 16 16 16 16 16 17 17 17 17 17 17 17 17 18 18 17 17 17 17 17 18 18 18 18 18 18
17 16 16 16 16 16 16 16 16 16 16 16 16 16 16 16 16 16 16 16 16 16 16 16 16 17 17 17 17 17 17 17 17 17 17 17 17 18 18 18 18 18 18
17 16 16 17 17 16 16 16 16 16 16 16 16 16 16 16 16 16 16 16 16 16 16 16 16 16 16 17 17 17 17 17 17 17 17 17 17 18 18 18 18 18 18
17 17 16 16 16 16 16 16 16 16 16 16 16 16 16 16 16 16 16 16 16 16 16 16 16 16 16 16 16 17 17 17 17 17 17 17 17 17 17 17 17 17 17
17 17 16 16 16 16 16 16 16 16 16 16 16 16 16 15 15 15 15 15 15 15 16 16 16 16 16 16 16 16 17 17 16 17 17 17 17 17 17 17 17 17 17
17 17 17 17 16 16 16 16 16 16 16 16 16 16 15 15 15 15 15 15 15 15 15 16 16 16 16 16 16 16 16 16 16 17 16 17 17 17 17 17 17 17 17
17 17 17 17 16 16 16 16 16 16 15 15 15 15 15 15 15 15 15 15 15 15 15 15 15 15 15 16 16 16 16 16 16 16 16 17 17 17 17 17 17 17 17
18 17 17 17 17 16 16 16 16 16 15 15 15 15 15 15 15 15 15 15 15 15 15 15 15 15 15 15 16 16 16 16 16 16 16 17 17 17 17 17 17 17 17
18 18 17 17 17 17 16 16 16 16 16 15 15 15 15 15 15 15 15 15 15 15 15 15 15 15 15 16 16 16 16 16 16 16 16 16 17 17 17 17 17 17 17
18 17 17 17 17 17 16 16 16 16 16 15 15 15 15 15 15 15 15 15 15 15 15 15 15 15 15 15 16 16 16 16 16 16 16 16 16 17 17 17 17 17 17
18 18 17 17 17 17 16 16 16 16 15 15 15 15 15 15 15 15 15 14 15 15 15 15 15 15 15 15 15 15 15 16 16 16 16 16 16 16 16 17 17 17 17
18 18 17 17 17 17 17 16 16 16 16 15 15 15 15 15 15 15 15 15 14 14 15 15 15 15 15 15 15 15 15 15 15 16 15 15 16 16 16 16 17 17 17
18 18 17 17 17 17 16 16 16 16 15 15 15 15 15 15 14 14 14 14 14 14 14 14 14 15 15 15 15 15 15 15 15 15 15 16 16 16 16 16 16 16 16
18 18 18 17 17 17 16 16 16 16 15 15 15 15 15 15 14 14 14 14 14 14 14 14 14 14 14 14 15 15 15 15 15 15 15 15 15 15 16 16 16 16 16
18 18 17 17 17 17 16 16 16 16 16 15 15 15 15 15 14 14 14 14 14 14 14 14 14 14 14 14 15 15 15 15 15 15 15 15 15 15 15 15 16 16 16
18 18 17 17 17 17 16 16 16 16 15 15 15 15 15 14 14 14 14 14 14 14 14 14 14 14 14 14 15 15 15 15 15 15 15 15 15 15 15 15 15 15 16
18 18 17 17 17 17 16 16 16 16 15 15 15 15 15 15 15 14 14 14 14 14 14 14 14 14 14 14 14 15 16 16 15 15 15 15 15 15 15 15 15 15 15
18 18 18 17 17 17 16 16 16 16 15 15 15 15 15 15 15 14 14 14 14 14 14 13 13 13 13 14 14 14 15 16 15 15 15 15 15 15 15 15 15 15 15
18 18 17 17 17 17 16 16 16 16 15 15 15 15 14 14 14 14 14 14 14 14 13 13 13 13 13 13 13 13 13 14 14 15 15 15 14 14 14 15 15 15 15
18 18 17 17 17 17 16 16 16 16 15 15 15 15 14 14 14 14 14 14 14 14 13 13 13 13 13 13 13 13 13 13 14 14 15 14 15 15 14 14 14 14 15
18 18 17 17 17 17 17 16 16 15 15 15 15 15 14 14 14 14 14 14 14 14 13 13 13 13 13 13 13 13 13 13 13 14 14 14 14 14 14 14 14 14 14
Wind_Speed
4 6 8 10 11 11 12 12 13 13 12 12 11 11 10 10 10 9 9 8 8 8 8 8 8 8 8 7 7 7 7 6 6 6 5 4 4 4 4 4 4 3 6
6 8 10 11 11 12 12 12 13 13 12 11 11 11 10 10 10 10 9 9 8 8 8 8 8 8 7 7 7 7 7 6 6 5 4 1 3 4 5 5 6 6 5
8 9 11 12 12 12 13 13 13 13 12 11 11 11 10 10 9 9 9 9 8 8 8 8 7 7 7 7 7 7 6 6 5 4 4 1 4 5 4 4 4 5 5
9 10 12 12 13 13 13 13 13 13 12 12 11 11 10 9 9 9 9 9 8 8 8 8 8 7 7 7 7 7 6 6 5 5 3 4 3 6 4 4 4 4 5
10 11 13 12 13 14 14 13 13 12 12 12 11 10 9 9 8 8 8 8 8 8 8 8 7 7 7 7 7 6 6 6 4 5 3 3 4 5 4 4 3 4 4
10 12 13 12 13 14 13 13 12 12 12 11 10 9 8 8 8 7 7 7 7 7 7 7 7 7 6 7 6 6 6 5 6 3 3 2 3 5 4 4 4 3 4
10 11 13 12 13 13 13 12 12 12 11 10 10 9 8 8 7 7 6 6 7 7 7 7 7 7 7 6 6 6 6 6 4 2 2 2 4 5 4 4 4 4 4
10 10 12 11 11 11 12 11 11 10 10 10 9 9 9 8 8 8 7 7 7 7 7 7 7 7 7 6 6 6 6 7 3 2 1 2 4 4 4 3 4 4 5
9 9 9 10 10 11 11 10 10 10 9 9 9 8 8 8 8 8 7 7 7 7 7 7 7 7 7 6 6 5 5 5 5 2 2 2 4 3 3 3 4 5 5
7 8 8 8 8 9 9 10 9 9 8 8 8 7 6 5 5 5 6 7 7 8 7 7 7 7 6 6 6 5 5 6 3 2 2 3 3 3 3 4 4 5 5
7 7 7 7 7 7 7 7 7 7 7 5 6 6 3 5 6 5 9 8 7 7 7 7 7 5 4 2 3 4 5 3 2 3 3 6 4 3 3 3 4 5 5
7 6 6 5 5 6 6 6 5 6 6 6 7 6 5 5 5 5 5 5 6 5 3 5 4 3 5 3 2 3 3 3 2 2 4 6 4 3 3 3 3 4 5
7 6 5 5 5 5 5 5 5 5 5 6 6 6 5 5 4 5 5 4 4 4 5 4 4 4 4 4 4 4 4 4 3 3 4 6 5 4 3 3 3 3 4
7 7 6 5 5 5 5 5 4 5 5 5 6 7 6 5 5 5 5 6 5 4 5 5 4 5 5 4 4 4 4 4 3 3 3 5 5 4 3 2 3 3 3
7 6 6 5 5 5 5 4 5 5 5 6 5 6 6 5 5 5 5 5 6 5 5 4 5 5 5 5 5 5 4 4 3 3 2 4 4 4 3 2 2 2 2
6 6 5 5 5 4 4 4 5 5 5 5 6 6 6 6 6 5 5 5 6 6 6 5 5 4 4 4 4 4 5 4 4 3 3 1 2 3 3 3 2 2 2
6 6 6 5 4 4 4 5 4 4 5 5 5 6 6 6 6 6 6 6 6 6 6 6 5 4 4 4 4 4 3 4 4 3 3 3 1 2 1 2 3 2 2
6 6 5 4 4 4 4 4 4 5 5 5 5 6 7 7 7 6 5 6 6 6 6 5 5 5 4 4 4 4 3 2 3 3 3 2 2 3 1 2 2 2 2
6 6 5 4 4 4 4 3 4 4 4 5 5 5 6 7 7 6 5 6 7 6 6 6 6 6 5 5 4 3 3 2 3 3 3 3 2 3 2 1 1 0 2
5 6 5 5 4 4 3 3 3 3 3 4 4 5 6 6 7 6 5 6 7 5 6 6 6 5 5 5 4 3 2 2 2 3 3 3 3 3 3 3 2 2 2
6 5 5 4 4 3 2 2 2 2 2 3 4 5 5 6 6 6 5 6 6 5 6 7 6 6 6 6 4 3 1 1 2 3 3 3 3 3 3 3 3 3 1
5 4 4 4 3 2 2 1 1 2 2 3 3 4 5 6 6 6 6 5 5 4 6 6 6 6 5 6 5 4 2 0 2 2 2 3 4 3 3 3 3 2 3
5 5 4 4 4 3 2 2 1 1 1 2 3 3 4 5 5 6 6 5 5 5 5 6 6 6 6 6 6 5 4 3 4 2 3 3 4 4 3 3 3 3 3
6 5 5 4 4 3 3 2 2 1 2 3 3 3 3 4 5 5 5 5 5 5 5 5 5 5 5 5 4 4 4 4 4 3 2 4 5 4 4 3 3 3 3
6 5 5 5 4 3 3 2 1 2 2 2 2 3 3 4 5 5 6 5 5 5 5 5 5 5 5 5 5 5 4 3 4 4 5 6 4 4 4 4 3 3 3
7 6 5 5 4 3 3 2 2 2 2 3 3 4 3 3 4 6 6 5 5 5 5 5 5 5 5 5 5 4 5 5 5 4 5 6 6 5 4 3 3 3 3
Wind_Direction
76 78 90 97 100 101 99 99 98 98 96 95 93 92 90 86 82 77 72 69 67 62 58 55 54 52 50 48 45 42 40 41 39 37 37 44 46 42 34 24 352 50 52
89 90 93 94 98 99 96 95 95 94 94 92 91 89 85 81 76 73 69 65 61 58 54 48 46 46 44 40 36 33 32 32 30 29 12 66 85 47 32 25 11 27 33
92 94 95 90 93 93 91 91 91 89 89 88 86 85 82 77 73 68 64 60 55 53 49 45 40 38 37 33 27 23 23 24 23 9 299 358 84 71 31 28 28 25 22
92 90 87 88 88 88 87 86 86 84 82 79 77 76 75 72 69 65 59 54 49 46 43 38 33 32 31 28 21 18 17 14 5 315 315 23 36 67 31 22 21 19 17
91 89 88 87 86 86 85 85 84 83 80 76 73 69 67 65 62 59 54 49 43 41 37 32 27 26 22 18 15 13 11 5 331 298 4 12 32 50 24 15 14 14 14
93 91 90 86 87 85 84 83 83 81 79 76 71 66 61 59 56 51 45 42 36 32 29 25 21 19 16 12 10 6 2 346 298 347 354 1 32 44 18 11 11 11 12
98 95 93 85 85 84 81 80 80 79 77 75 69 63 58 54 50 46 41 38 32 26 23 19 14 11 10 11 8 4 359 331 314 339 344 9 33 28 8 10 14 10 7
99 100 100 93 84 80 77 74 74 73 71 69 66 62 58 53 48 47 41 37 33 26 21 17 13 10 10 7 4 2 358 327 318 329 347 20 39 13 3 10 11 8 2
101 100 100 102 100 94 81 71 69 69 67 66 64 61 59 56 52 49 45 36 32 29 24 19 16 14 11 8 4 1 352 328 314 319 326 32 46 12 6 7 7 3 356
107 101 98 94 90 91 90 76 70 69 66 66 63 59 61 74 68 49 48 42 31 29 25 20 15 14 11 11 8 358 323 284 328 323 334 49 34 359 6 4 4 0 355
106 103 102 97 89 85 81 80 80 77 66 73 76 66 42 42 45 51 44 38 32 30 27 22 16 10 345 21 21 337 291 326 1 343 15 37 13 358 3 1 3 3 357
110 106 103 99 91 88 81 80 66 65 65 58 52 47 41 44 37 33 70 47 36 22 27 29 350 308 300 348 26 273 326 336 334 357 47 33 8 358 357 3 3 1 356
109 103 100 98 91 87 85 71 61 62 65 61 48 44 34 35 36 28 19 28 17 356 8 8 331 356 347 357 344 350 355 337 345 356 43 28 4 356 354 355 1 355 353
107 100 95 93 93 88 82 78 72 67 60 56 45 37 33 30 22 23 14 13 9 13 7 356 351 356 345 344 345 348 349 341 342 347 38 30 3 354 349 353 358 357 352
109 103 90 85 82 85 81 78 74 64 52 59 44 35 35 28 24 21 22 15 10 7 1 353 349 358 344 345 341 338 340 336 329 331 11 58 16 0 356 356 351 344 345
113 104 100 92 87 89 93 84 70 67 66 50 47 40 33 30 24 16 20 19 12 4 358 348 355 344 337 341 337 338 328 329 327 324 326 54 95 34 10 356 334 327 303
112 110 102 94 87 85 81 73 70 64 57 52 46 38 37 30 23 21 17 18 11 4 359 355 355 343 341 338 336 336 332 330 326 321 329 325 322 123 63 359 340 325 306
120 114 109 103 95 88 84 76 70 64 58 55 47 40 33 31 28 24 17 17 11 6 4 3 357 348 345 340 339 339 333 336 325 330 316 307 320 326 118 83 348 340 336
126 123 116 106 100 98 96 89 73 69 60 54 48 40 28 27 24 26 17 10 11 9 8 4 7 355 353 347 339 335 339 351 349 340 332 330 327 316 317 111 172 330 340
133 125 119 118 110 110 110 98 91 76 64 56 48 39 26 21 19 19 17 16 12 14 11 10 8 4 354 346 340 347 353 10 12 6 353 349 337 330 329 325 291 188 183
143 134 128 130 125 126 117 104 88 78 63 58 46 35 25 20 16 16 10 17 11 17 11 8 3 5 5 354 342 343 20 64 26 19 360 352 1 354 333 322 311 314 233
145 144 141 134 129 121 105 91 80 64 55 50 39 36 24 19 15 8 11 11 16 11 13 12 8 0 8 5 350 337 342 118 38 22 11 358 352 351 344 333 328 317 308
150 147 145 138 132 126 128 124 120 117 121 78 49 34 21 17 17 10 9 6 7 7 12 6 4 3 1 10 12 356 345 357 344 9 10 2 359 347 340 343 331 328 316
154 152 148 141 131 123 128 120 93 56 46 35 18 22 17 22 18 12 7 3 4 5 3 0 7 357 351 357 5 4 353 341 323 332 345 360 353 350 351 339 331 334 332
154 154 149 139 129 121 115 104 95 71 57 47 30 25 14 26 18 14 5 2 1 360 359 356 353 351 350 347 346 344 339 326 312 313 320 334 339 346 351 346 335 341 342
156 155 152 147 134 128 126 117 96 79 59 46 32 23 16 25 20 19 7 2 1 359 356 352 348 350 347 344 336 337 333 328 330 322 314 321 328 334 340 340 338 348 343
Height
1542 1542 1541 1542 1542 1543 1543 1544 1544 1544 1545 1545 1545 1545 1545 1545 1545 1545 1544 1544 1544 1544 1543 1543 1543 1542 1541 1541 1540 1540 1539 1539 1538 1538 1537 1536 1536 1535 1534 1533 1533 1533 1531
1544 1543 1543 1543 1544 1544 1545 1545 1546 1546 1546 1546 1546 1546 1546 1546 1546 1546 1545 1545 1545 1544 1544 1543 1543 1543 1542 1541 1541 1540 1540 1539 1539 1538 1538 1537 1536 1536 1535 1534 1533 1533 1532
1545 1545 1545 1545 1545 1546 1546 1547 1547 1547 1547 1547 1547 1547 1547 1547 1547 1546 1546 1546 1545 1545 1544 1544 1543 1543 1542 1542 1541 1541 1540 1540 1539 1539 1538 1539 1538 1536 1535 1535 1534 1533 1532
1547 1547 1546 1546 1547 1547 1547 1548 1548 1548 1548 1548 1548 1548 1548 1548 1547 1547 1546 1546 1545 1545 1544 1544 1543 1543 1542 1542 1541 1541 1540 1540 1540 1539 1540 1540 1539 1537 1536 1535 1534 1533 1533
1549 1549 1548 1548 1549 1549 1549 1549 1549 1549 1549 1549 1549 1549 1549 1548 1548 1547 1547 1546 1546 1545 1544 1544 1543 1543 1542 1542 1541 1541 1540 1540 1540 1540 1540 1539 1538 1537 1536 1535 1535 1534 1533
1551 1551 1550 1550 1551 1551 1551 1551 1551 1550 1550 1550 1550 1550 1549 1549 1549 1548 1548 1547 1546 1545 1545 1544 1543 1543 1542 1541 1541 1541 1540 1540 1540 1540 1539 1539 1538 1537 1536 1536 1535 1534 1533
1553 1553 1553 1553 1553 1553 1553 1553 1552 1552 1552 1552 1551 1551 1550 1550 1549 1549 1548 1547 1546 1546 1545 1544 1543 1543 1542 1541 1541 1540 1540 1539 1540 1540 1539 1539 1538 1537 1537 1536 1535 1535 1534
1555 1556 1555 1555 1555 1555 1555 1555 1554 1554 1554 1553 1553 1552 1551 1551 1550 1549 1549 1548 1547 1546 1545 1544 1543 1543 1542 1541 1540 1540 1539 1539 1540 1540 1539 1539 1538 1537 1537 1536 1535 1535 1534
1557 1558 1558 1559 1558 1557 1557 1557 1556 1556 1555 1555 1554 1553 1552 1552 1551 1550 1549 1548 1547 1546 1545 1544 1544 1543 1542 1541 1540 1540 1539 1539 1539 1540 1540 1539 1538 1537 1537 1536 1535 1535 1534
1559 1560 1560 1560 1560 1560 1559 1558 1558 1557 1557 1556 1555 1554 1554 1553 1552 1551 1550 1549 1548 1547 1546 1545 1544 1543 1542 1541 1540 1540 1539 1539 1539 1540 1539 1539 1537 1537 1536 1536 1535 1535 1534
1561 1562 1562 1562 1562 1562 1561 1560 1560 1559 1558 1557 1557 1556 1555 1555 1554 1553 1551 1549 1548 1547 1546 1545 1544 1543 1542 1541 1540 1540 1539 1540 1539 1539 1539 1537 1537 1537 1536 1536 1535 1535 1534
1563 1563 1563 1563 1563 1563 1563 1562 1561 1561 1560 1559 1558 1557 1557 1555 1554 1553 1551 1550 1549 1547 1546 1545 1544 1543 1542 1542 1541 1540 1540 1540 1540 1539 1538 1537 1537 1536 1536 1536 1535 1534 1534
1564 1564 1564 1564 1564 1564 1564 1564 1563 1562 1561 1560 1559 1558 1557 1556 1555 1554 1553 1551 1549 1548 1547 1545 1545 1544 1543 1542 1541 1541 1540 1540 1539 1539 1538 1536 1536 1536 1536 1535 1534 1534 1534
1565 1566 1565 1566 1566 1565 1565 1565 1564 1563 1562 1562 1561 1559 1558 1557 1556 1554 1553 1551 1550 1548 1547 1546 1545 1544 1543 1542 1541 1541 1540 1539 1539 1538 1537 1536 1536 1536 1535 1535 1535 1534 1533
1566 1567 1567 1567 1567 1566 1566 1565 1565 1564 1564 1563 1561 1560 1559 1558 1557 1555 1554 1551 1550 1549 1548 1546 1545 1544 1543 1542 1541 1540 1540 1539 1538 1538 1537 1536 1536 1535 1535 1535 1534 1534 1533
1567 1568 1567 1568 1567 1567 1567 1567 1566 1566 1564 1564 1562 1561 1560 1559 1557 1556 1555 1552 1551 1549 1548 1546 1545 1543 1542 1541 1540 1539 1539 1538 1538 1537 1537 1536 1535 1535 1534 1534 1534 1533 1533
1568 1569 1568 1568 1568 1568 1568 1567 1567 1566 1566 1565 1563 1562 1561 1559 1558 1557 1555 1553 1551 1549 1548 1546 1545 1543 1542 1541 1540 1539 1538 1537 1537 1537 1536 1535 1535 1534 1534 1533 1533 1533 1532
1569 1569 1569 1569 1569 1568 1568 1568 1568 1567 1566 1565 1564 1563 1562 1561 1559 1557 1555 1554 1552 1550 1548 1546 1545 1543 1542 1541 1540 1539 1538 1536 1536 1536 1535 1535 1534 1534 1534 1533 1532 1532 1532
1569 1570 1570 1570 1570 1569 1569 1568 1568 1568 1567 1566 1565 1564 1563 1561 1560 1558 1556 1554 1552 1550 1549 1547 1545 1543 1542 1540 1539 1538 1537 1536 1536 1535 1535 1534 1534 1533 1533 1532 1532 1531 1531
1569 1570 1570 1570 1570 1569 1569 1570 1569 1568 1568 1567 1566 1564 1563 1562 1560 1559 1557 1555 1553 1551 1549 1547 1546 1543 1542 1540 1539 1538 1537 1536 1535 1535 1534 1534 1533 1533 1532 1532 1531 1531 1530
1569 1570 1570 1570 1570 1570 1570 1570 1570 1569 1568 1567 1566 1564 1563 1562 1560 1559 1557 1555 1553 1551 1550 1548 1546 1545 1543 1541 1540 1539 1538 1537 1536 1534 1534 1533 1533 1532 1531 1531 1530 1530 1530
1568 1569 1570 1570 1570 1570 1569 1570 1569 1569 1568 1567 1566 1565 1564 1562 1560 1559 1558 1556 1554 1552 1550 1549 1547 1545 1544 1542 1541 1540 1539 1539 1536 1535 1534 1533 1532 1531 1531 1530 1530 1529 1529
1568 1568 1569 1569 1569 1569 1569 1569 1569 1568 1568 1568 1567 1565 1564 1562 1561 1559 1558 1556 1554 1553 1551 1549 1548 1546 1545 1543 1542 1542 1540 1538 1537 1536 1535 1533 1532 1531 1530 1529 1529 1528 1528
1566 1567 1568 1569 1569 1569 1569 1569 1569 1569 1569 1567 1566 1565 1564 1562 1561 1559 1558 1556 1555 1553 1552 1550 1548 1547 1545 1544 1543 1541 1541 1540 1539 1536 1536 1534 1532 1531 1530 1529 1528 1527 1526
1565 1566 1567 1568 1568 1568 1568 1568 1568 1568 1568 1567 1566 1565 1564 1562 1561 1559 1558 1557 1555 1554 1552 1550 1548 1547 1546 1544 1543 1542 1541 1539 1539 1537 1535 1534 1532 1531 1529 1528 1527 1526 1526
1564 1565 1566 1567 1567 1567 1568 1568 1568 1567 1567 1566 1566 1565 1564 1562 1561 1559 1558 1556 1555 1554 1552 1550 1548 1547 1545 1544 1543 1542 1541 1540 1538 1537 1535 1533 1531 1530 1529 1527 1527 1525 1525